Probability
0 0 0 0 0 0 0 0 0 0 0 0 0 0 2 6 8 9 11 14 14 17 28 39 43 42 47 55 53 46 45 49 53 56 58 58 56 52 47 45 45 46 47 48
0 0 0 0 0 0 0 0 0 0 0 0 0 1 3 6 8 9 12 14 14 18 27 38 43 44 48 54 53 49 48 51 53 52 53 53 50 45 40 37 36 36 38 39
0 0 0 0 0 0 0 0 0 0 0 0 0 1 3 5 5 6 9 13 16 18 23 31 40 44 47 51 52 51 51 52 53 51 50 48 43 37 32 26 23 22 24 25
0 0 0 0 0 0 0 0 0 0 0 0 0 0 2 3 2 2 6 12 15 16 20 26 33 39 43 46 50 52 53 53 52 52 50 46 39 32 25 18 13 13 14 14
0 0 0 0 0 0 0 0 0 0 0 0 0 0 1 2 1 1 5 9 11 14 20 26 29 33 38 43 46 50 53 54 52 51 49 46 37 26 18 13 9 9 9 8
0 0 0 0 0 0 0 0 0 0 0 0 0 0 1 3 2 1 3 6 7 11 19 24 26 28 33 39 42 43 46 48 49 48 45 40 30 19 12 9 8 8 8 8
0 0 0 0 0 0 0 0 0 0 0 0 0 0 3 6 4 2 2 4 6 9 13 18 20 22 26 32 34 34 35 37 38 38 35 29 22 13 8 7 7 8 8 7
0 0 0 0 0 0 0 0 0 0 0 0 0 1 5 7 5 3 2 3 4 6 8 11 14 15 18 21 24 24 24 24 23 23 20 17 13 9 6 6 5 5 5 5
0 0 0 0 0 0 0 0 0 0 0 0 0 1 4 5 4 3 2 2 3 3 5 6 8 9 10 12 14 16 15 14 13 11 10 8 7 5 4 3 3 2 2 2
0 0 0 0 0 0 0 0 0 0 0 0 0 0 1 2 2 2 1 1 2 3 3 3 3 4 5 6 8 9 9 8 7 6 5 4 3 3 2 1 1 0 0 0
0 0 0 0 0 0 0 0 0 0 0 0 0 0 0 1 2 2 1 1 1 2 2 1 1 1 2 3 5 6 6 5 5 3 2 1 1 1 1 0 0 0 0 0
0 0 0 0 0 0 0 0 0 0 0 0 0 0 0 1 2 2 1 0 0 1 1 0 0 0 1 1 2 3 3 3 2 1 0 0 0 0 0 0 0 0 0 0
0 0 0 0 0 0 0 0 0 0 0 0 0 0 0 1 2 2 1 0 0 0 0 0 0 0 0 0 1 1 1 1 0 0 0 0 0 0 0 0 0 0 0 0
0 0 0 0 0 0 0 0 0 0 0 0 0 0 0 1 1 1 1 0 0 0 0 0 0 0 0 0 0 0 0 0 0 0 0 0 0 0 0 0 0 0 0 0
0 0 0 0 0 0 0 0 0 0 0 0 0 1 1 0 0 0 0 0 0 0 0 0 0 0 0 0 0 0 0 0 0 0 0 0 0 0 0 0 0 0 0 0
0 0 0 0 0 0 0 0 0 0 0 0 0 1 1 0 0 0 0 0 0 0 0 0 0 0 0 0 0 0 0 0 0 0 0 0 0 0 0 0 0 0 0 0
0 0 0 0 0 0 0 0 0 0 0 0 0 0 0 0 0 0 0 0 0 0 0 0 0 0 0 0 0 0 0 0 0 0 0 0 0 0 0 0 0 0 0 0
0 0 0 0 0 0 0 0 0 0 0 0 0 0 0 0 0 0 0 0 0 0 0 0 0 0 0 0 0 0 0 0 0 0 0 0 0 0 0 0 0 0 0 0
0 0 0 0 0 0 0 0 0 0 0 0 0 0 0 0 0 0 0 0 0 0 0 0 0 0 0 0 0 0 0 0 0 0 0 0 0 0 0 0 0 0 0 0
0 0 0 0 0 0 0 0 0 0 0 0 0 0 0 0 0 0 0 0 0 0 0 0 0 0 0 0 0 0 0 0 0 0 0 0 0 0 0 0 0 0 0 0
0 0 0 0 0 0 0 0 0 0 0 0 0 0 0 0 0 0 0 0 0 0 0 0 0 0 0 0 0 0 0 0 0 0 0 0 0 0 0 0 0 0 0 0
0 0 0 0 0 0 0 0 0 0 0 0 0 0 0 0 0 0 0 0 0 0 0 0 0 0 0 0 0 0 0 0 0 0 0 0 0 0 0 0 0 0 0 0
0 0 0 0 0 0 0 0 0 0 0 0 0 0 0 0 0 0 0 0 0 0 0 0 0 0 0 0 0 0 0 0 0 0 0 0 0 0 0 0 0 0 0 0
0 0 0 0 0 0 0 0 0 0 0 0 0 0 0 0 0 0 0 0 0 0 0 0 0 0 0 0 0 0 0 0 0 0 0 0 0 0 0 0 0 0 0 0
0 0 0 0 0 0 0 0 0 0 0 0 0 0 0 0 0 0 0 0 0 0 0 0 0 0 0 0 0 0 0 0 0 0 0 0 0 0 0 0 0 0 0 0
0 0 0 0 0 0 0 0 0 0 0 0 0 0 0 0 0 0 0 0 0 0 0 0 0 0 0 0 0 0 0 0 0 0 0 0 0 0 0 0 0 0 0 0
Wind_Speed
6 9 7 2 4 6 7 9 9 7 4 7 9 8 5 4 4 4 3 2 1 1 1 1 1 1 4 5 6 7 9 9 7 6 6 6 5 4 3 3 3 3 2 3
8 9 4 3 4 7 9 10 10 6 2 7 8 7 4 2 2 2 2 2 1 1 2 3 2 1 2 4 5 6 7 9 9 7 6 5 5 4 3 3 4 3 3 3
10 2 1 5 7 9 9 10 9 9 6 8 9 10 8 5 3 2 1 1 2 2 3 3 3 2 2 2 3 4 5 7 9 8 6 6 5 4 3 4 4 5 5 5
8 6 6 9 10 9 10 7 9 9 10 8 8 9 7 7 6 4 2 2 3 4 5 5 4 4 4 2 1 3 4 5 6 8 8 9 7 6 5 5 6 7 7 7
7 6 8 11 10 9 11 9 10 11 12 12 11 11 6 8 7 5 4 4 5 6 6 6 6 5 5 4 3 4 4 5 6 7 10 9 8 7 7 8 10 8 8 8
12 8 8 10 10 9 10 10 11 11 12 14 11 10 7 5 5 6 6 6 6 6 7 7 7 7 6 6 5 5 5 6 6 7 8 10 11 11 11 10 9 8 6 7
10 10 9 8 11 9 9 10 9 10 10 9 5 8 1 4 3 5 7 7 7 7 7 7 8 8 7 7 7 6 7 7 7 7 8 9 12 12 12 10 9 8 7 7
9 7 4 5 8 9 9 11 11 10 8 4 5 5 4 6 6 7 8 8 8 7 8 9 9 9 8 8 8 7 8 9 9 10 10 10 10 9 9 10 9 9 7 8
7 6 1 3 6 8 8 10 9 11 12 10 4 3 5 6 7 7 8 8 8 8 8 9 9 9 9 9 9 8 9 10 11 12 12 12 12 12 13 12 11 10 9 9
7 9 6 2 6 8 10 8 6 9 9 10 6 6 4 10 9 8 8 8 8 8 8 9 9 9 9 9 9 10 11 12 12 12 12 12 13 13 13 13 13 12 11 9
6 8 6 6 7 6 6 8 9 9 9 9 7 0 4 5 9 9 9 8 9 9 9 9 9 9 9 10 10 11 12 13 14 14 14 14 14 13 13 13 12 11 10 10
5 7 8 6 1 3 7 8 9 9 9 9 8 2 6 5 9 11 11 9 9 10 9 9 9 9 10 11 11 11 12 13 13 13 14 14 14 14 13 13 12 11 11 10
4 6 7 5 6 6 6 6 8 9 9 9 8 2 6 8 10 11 12 11 10 10 10 9 9 9 10 10 11 11 12 13 13 13 14 14 14 14 14 12 11 11 10 10
5 7 8 8 6 4 5 6 6 8 8 9 6 3 7 9 10 11 11 11 10 10 10 9 9 9 10 10 11 12 12 12 13 14 14 14 13 13 13 12 11 10 10 10
6 7 7 7 5 6 6 6 6 7 8 8 3 2 7 10 11 12 12 12 12 11 10 10 10 10 10 11 11 11 12 12 13 14 14 14 12 12 12 11 11 10 9 9
6 7 6 7 5 5 6 5 4 3 3 2 2 3 8 11 10 11 13 13 12 12 11 11 11 11 10 10 11 11 12 11 12 13 13 12 12 11 11 11 10 9 9 8
6 6 7 6 4 7 6 1 1 0 1 1 1 5 12 11 11 12 13 13 13 13 12 11 11 10 10 10 10 11 11 11 12 12 12 12 11 11 10 10 10 9 9 8
6 6 5 5 5 6 3 3 1 2 1 1 5 10 11 11 10 9 10 12 13 13 12 12 11 11 10 11 11 11 11 11 11 11 11 11 10 10 9 9 9 9 8 7
5 6 5 5 5 3 4 4 2 1 2 3 8 12 12 14 12 8 8 10 12 12 11 11 12 12 11 11 11 11 11 10 10 10 10 10 9 9 9 9 8 7 7 7
6 6 7 6 7 3 4 5 2 3 4 7 10 13 15 13 8 7 10 13 13 12 11 12 12 12 11 11 10 11 11 10 10 9 9 9 8 8 8 8 7 7 6 6
7 7 7 7 6 1 6 4 4 5 5 10 11 13 13 7 7 14 15 14 14 13 13 12 12 11 11 11 10 10 10 10 9 9 9 8 8 7 7 6 6 5 5 6
5 4 4 4 5 3 5 3 1 5 8 10 11 11 11 13 17 17 16 15 15 14 13 12 11 11 10 10 10 10 10 9 9 8 8 8 7 6 6 6 5 5 5 5
3 4 3 4 5 6 3 4 5 6 10 11 12 13 14 16 17 17 16 15 15 14 13 11 12 11 10 9 9 10 10 9 8 8 8 7 7 6 5 5 5 4 3 2
4 1 1 3 6 6 5 5 6 9 11 12 14 15 16 17 17 17 15 15 14 13 12 11 12 12 10 9 9 9 9 8 8 7 7 6 6 6 5 3 3 3 3 3
4 5 3 4 8 8 6 7 10 12 13 15 15 15 16 18 18 17 15 15 13 12 11 11 11 11 11 10 9 9 8 7 7 7 5 5 5 6 5 6 6 5 7 7
5 4 3 3 9 7 10 10 13 14 15 16 16 15 16 16 17 17 14 13 13 12 11 11 11 11 11 10 9 8 7 7 6 6 5 4 4 4 4 6 6 8 7 5
Wind_Direction
200 235 235 257 278 301 295 290 286 286 277 263 262 260 254 250 255 253 254 250 220 218 76 69 103 177 162 161 171 183 183 177 177 182 188 180 177 166 155 149 141 153 172 175
216 231 244 262 264 267 270 273 276 275 254 268 268 258 239 233 249 290 298 285 281 307 30 31 42 90 152 158 172 176 180 171 176 180 182 177 159 146 135 118 97 91 114 128
245 271 172 253 249 257 265 274 291 296 288 247 250 240 207 182 179 146 80 19 22 21 31 36 41 51 91 123 154 162 166 171 176 169 153 142 131 130 133 110 87 70 77 84
250 251 242 252 260 269 275 279 286 279 269 261 243 263 203 186 186 165 129 88 67 52 49 47 48 48 50 56 98 132 139 156 163 157 155 151 154 153 139 118 100 84 75 76
239 233 248 259 272 278 286 299 282 272 267 269 247 258 233 190 202 166 128 99 77 63 56 53 50 50 51 54 65 87 107 130 148 157 155 152 149 135 123 115 104 90 78 74
265 261 264 273 279 274 278 273 261 253 253 255 250 251 245 198 203 158 131 104 84 73 66 59 58 58 54 53 61 75 90 101 121 137 144 145 139 131 122 111 106 96 87 79
245 239 227 249 264 245 245 258 257 245 238 252 236 246 252 80 101 145 132 109 87 71 64 58 54 54 53 52 57 70 85 91 94 109 117 122 125 123 116 112 106 103 95 87
276 266 221 226 261 279 254 260 269 282 283 279 214 242 91 91 94 109 116 114 99 82 69 59 52 51 52 54 59 71 83 87 89 90 91 97 106 104 101 100 99 92 88 89
282 287 215 244 261 267 261 250 275 282 277 275 241 155 128 130 131 131 124 114 97 85 75 66 56 53 53 55 57 71 85 87 87 88 90 90 91 93 96 95 92 90 90 92
279 283 270 226 241 229 267 287 262 255 268 268 248 227 192 172 171 157 142 124 109 97 83 72 62 59 59 61 65 71 80 85 86 86 86 89 89 92 93 91 90 90 89 90
255 269 266 234 245 269 232 235 254 266 274 284 282 63 36 162 164 152 135 124 115 101 86 78 71 66 68 69 72 77 80 83 84 84 87 88 87 88 90 91 91 91 90 90
231 270 278 266 263 289 272 268 262 264 266 266 282 49 50 98 127 129 123 114 107 100 92 84 80 76 73 72 74 78 82 85 87 89 89 89 89 90 90 90 90 90 89 88
193 250 273 236 189 202 239 251 260 267 277 273 273 110 91 104 112 119 122 117 111 105 97 90 85 82 81 80 81 83 86 89 92 94 93 92 91 92 92 92 92 91 90 88
235 260 280 301 321 312 277 269 266 262 267 274 280 149 142 129 125 125 125 123 119 112 107 102 95 90 89 90 90 91 91 94 97 97 96 94 93 94 95 94 92 91 91 89
236 259 269 282 284 278 281 287 284 270 281 289 299 157 152 147 140 136 133 129 125 119 114 110 105 100 98 97 95 95 96 98 100 100 97 96 97 98 97 94 92 91 90 91
228 267 269 260 250 254 267 276 278 281 290 282 145 104 124 130 133 138 140 139 135 129 124 119 115 110 106 105 104 102 101 101 102 101 101 102 102 100 98 97 95 93 91 92
216 247 266 266 255 259 252 276 270 220 27 251 256 124 135 140 147 149 148 145 139 135 131 125 119 115 112 108 107 106 105 105 104 104 106 106 106 103 102 102 100 98 98 96
238 248 265 278 263 256 74 74 89 99 65 18 97 129 145 138 130 132 142 143 140 138 135 131 126 121 116 114 113 112 112 111 110 111 111 111 109 106 105 103 101 100 99 97
245 247 265 274 272 266 143 159 186 236 105 105 126 130 127 121 114 115 129 134 135 135 134 130 128 126 124 123 122 121 118 116 115 114 114 114 113 112 111 107 104 103 103 101
206 236 257 269 285 296 95 115 149 231 150 133 140 142 144 151 146 138 138 134 132 132 132 131 131 129 128 129 130 127 124 123 119 118 115 113 110 108 106 106 106 104 107 107
204 220 246 268 275 59 83 123 204 262 92 140 149 151 159 163 117 130 137 135 135 136 137 137 137 134 133 136 134 129 126 122 119 117 115 112 109 108 106 107 106 109 109 105
248 249 246 265 274 80 89 171 321 60 111 137 141 142 132 113 116 128 134 136 137 137 139 139 136 132 134 137 136 130 124 122 121 118 116 113 111 107 106 109 112 112 116 125
263 341 345 3 42 74 72 61 73 115 129 133 134 130 128 126 129 132 134 137 139 140 141 140 137 135 137 140 138 131 129 131 128 122 115 108 104 95 99 111 118 124 131 119
143 154 164 128 106 104 101 102 110 120 127 131 132 133 133 131 133 134 135 136 137 139 142 144 141 138 136 138 136 131 134 135 131 124 120 120 115 107 97 88 90 89 85 93
128 173 171 134 126 125 112 112 117 119 123 125 128 131 133 134 136 136 136 139 141 143 145 146 143 141 140 140 139 137 138 141 132 129 128 123 109 99 101 79 49 42 56 33
168 181 206 141 152 141 127 127 128 127 127 128 129 129 133 136 136 136 136 138 140 143 145 144 143 143 144 145 144 141 143 142 141 142 143 135 123 119 122 123 112 58 56 71